Regional Weather Roundup
Issued by NWS

Home | Current Version | Previous Version | Graphics & Text | Print | Product List | Glossary Off
Versions: 1 2 3 4 5 6 7 8 9 10 11 12 13 14 15 16 17 18 19 20 21 22 23 24 25 26 27 28 29 30 31 32 33 34 35 36 37 38 39 40 41 42 43 44 45 46 47 48 49 50

000
ASUS43 KMKX 131821
RWRWI

WISCONSIN REGIONAL WEATHER ROUNDUP
NATIONAL WEATHER SERVICE MILWAUKEE/SULLIVAN WI
100 PM CDT SUN JUL 13 2014

NOTE: "FAIR" INDICATES FEW OR NO CLOUDS BELOW 12,000 FEET WITH NO
SIGNIFICANT WEATHER AND/OR OBSTRUCTIONS TO VISIBILITY.

WIZ001-002-006>008-014>016-023>028-131900-
NORTHWEST WISCONSIN

CITY           SKY/WX    TMP DP  RH WIND       PRES   REMARKS
SUPERIOR ARPT  CLOUDY    67  49  52 W12G18    29.87F
6HR MIN TEMP:  55; 6HR MAX TEMP:  70;

ASHLAND        MOSUNNY   70  49  47 SW13G21   29.88F
6HR MIN TEMP:  56; 6HR MAX TEMP:  70;

HAYWARD        MOSUNNY   68  45  43 W9G20     29.92F
6HR MIN TEMP:  56; 6HR MAX TEMP:  69;

SIREN          MOSUNNY   72  47  41 NW14G23   29.93S
6HR MIN TEMP:  56; 6HR MAX TEMP:  72;

RICE LAKE      PTSUNNY   70  48  45 W8        29.95F
6HR MIN TEMP:  58; 6HR MAX TEMP:  70;

LADYSMITH      MOSUNNY   71  48  45 W9G17     29.94F
6HR MIN TEMP:  59; 6HR MAX TEMP:  71;

EAU CLAIRE     SUNNY     73  50  44 NW8       29.93F
6HR MIN TEMP:  62; 6HR MAX TEMP:  73;

MENOMONIE      CLEAR     74  48  39 W12G18    29.95F
6HR MIN TEMP:  63; 6HR MAX TEMP:  74;

NEW RICHMOND   MOSUNNY   71  48  43 W9G18     29.95F
6HR MIN TEMP:  59; 6HR MAX TEMP:  71;

OSCEOLA        MOSUNNY   72  50  45 SW12G17   29.97F
6HR MIN TEMP:  60; 6HR MAX TEMP:  72;

$$

WIZ003>005-009-010-017-018-131900-
NORTH CENTRAL WISCONSIN

CITY           SKY/WX    TMP DP  RH WIND       PRES   REMARKS
WOODRUFF       SUNNY     72  47  41 NW8G20    29.90F
6HR MIN TEMP:  57; 6HR MAX TEMP:  72;

RHINELANDER    SUNNY     68  46  45 W12G20    29.91F
6HR MIN TEMP:  60; 6HR MAX TEMP:  68;

EAGLE RIVER    MOSUNNY   67  43  41 NW10G18   29.89F
6HR MIN TEMP:  56; 6HR MAX TEMP:  67;

LAND O LAKES   MOSUNNY   68  43  40 W10G16    29.89F
6HR MIN TEMP:  56; 6HR MAX TEMP:  68;

PHILLIPS       MOSUNNY   67  46  47 W9        29.91F
6HR MIN TEMP:  57; 6HR MAX TEMP:  67;

TOMAHAWK       SUNNY     67  47  47 NW5       29.92F
6HR MIN TEMP:  59; 6HR MAX TEMP:  68;

MEDFORD        SUNNY     68  47  48 W10G16    29.93F
6HR MIN TEMP:  60; 6HR MAX TEMP:  68;

MERRILL        SUNNY     71  49  45 NW12      29.91F
6HR MIN TEMP:  63; 6HR MAX TEMP:  71;

$$

WIZ029-030-035-036-043>047-131900-
CENTRAL WISCONSIN

CITY           SKY/WX    TMP DP  RH WIND       PRES   REMARKS
WAUSAU         SUNNY     72  44  36 NW16      29.90S
6HR MIN TEMP:  64; 6HR MAX TEMP:  73;

MOSINEE        MOSUNNY   72  46  40 W13G21    29.93S
MARSHFIELD     SUNNY     72  46  39 NW12      29.93F
6HR MIN TEMP:  63; 6HR MAX TEMP:  72;

STEVENS POINT  SUNNY     71  44  36 NW9G21    29.92F
6HR MIN TEMP:  62; 6HR MAX TEMP:  72;

WAUPACA        SUNNY     79  48  33 W15G21    29.90S
6HR MIN TEMP:  65; 6HR MAX TEMP:  79;

WAUTOMA        MOSUNNY   77  58  51 NW13G22   29.91S
6HR MIN TEMP:  65; 6HR MAX TEMP:  77; 6HR PCP:  0.01;

WISC RAPIDS    SUNNY     75  46  35 NW9G18    29.93F
6HR MIN TEMP:  65; 6HR MAX TEMP:  76;

CAMP DOUGLAS   MOSUNNY   75  61  60 NW12      29.93S
$$

WIZ011>013-019>022-031-037>040-048>050-131900-
NORTHEAST WISCONSIN

CITY           SKY/WX    TMP DP  RH WIND       PRES   REMARKS
ANTIGO         SUNNY     68  49  50 NW13G18   29.91S
6HR MIN TEMP:  62; 6HR MAX TEMP:  68;

STURGEON BAY   SUNNY     75  52  43 NW12G20   29.86S
6HR MIN TEMP:  64; 6HR MAX TEMP:  75;

GREEN BAY      SUNNY     78  51  38 W18G25    29.87R
6HR MIN TEMP:  64; 6HR MAX TEMP:  78;

MANITOWOC      PTSUNNY   77  63  61 W14G20    29.86F
6HR MIN TEMP:  66; 6HR MAX TEMP:  77;

APPLETON       PTSUNNY   75  54  46 W15G23    29.89S
CLINTONVILLE   SUNNY     77  43  29 NW13      29.88S
OSHKOSH        MOSUNNY   77  61  57 W15G24    29.88S
6HR MIN TEMP:  64; 6HR MAX TEMP:  77;

$$

WIZ032>034-041-042-053>061-131900-
SOUTHWEST WISCONSIN

CITY           SKY/WX    TMP DP  RH WIND       PRES   REMARKS
LA CROSSE      SUNNY     78  57  48 NW17      29.93S
6HR MIN TEMP:  66; 6HR MAX TEMP:  78;

SPARTA         SUNNY     74  54  48 W8        29.95S
6HR MIN TEMP:  62; 6HR MAX TEMP:  75;

VIROQUA        FAIR      75  61  60 W12G17    29.95S
6HR MIN TEMP:  64; 6HR MAX TEMP:  76;

BOSCOBEL       MOSUNNY   83  63  50 W10G23    29.93S HX  84
6HR MIN TEMP:  67; 6HR MAX TEMP:  84;

PRAIRIE DU CHI MOSUNNY   80  62  54 W13       29.93S HX  81
6HR MIN TEMP:  66; 6HR MAX TEMP:  81;

PLATTEVILLE    PTSUNNY   79  69  69 W12G18    29.95F HX  82
6HR MIN TEMP:  65; 6HR MAX TEMP:  79;

$$

WIZ056-057-062-063-064-067-068-131900-
SOUTH CENTRAL WISCONSIN

CITY           SKY/WX    TMP DP  RH WIND       PRES   REMARKS
BARABOO/DELLS  PTSUNNY   78  60  55 NW13      29.92S
6HR MIN TEMP:  63; 6HR MAX TEMP:  79;

LONE ROCK      MOSUNNY   83  67  58 W8        29.91F HX  85
6HR MIN TEMP:  69; 6HR MAX TEMP:  83;

WATERTOWN      MOSUNNY   79  64  61 W12       29.90F HX  80
6HR MIN TEMP:  64; 6HR MAX TEMP:  79; 6HR PCP:  0.09;

MADISON        PTSUNNY   81  65  58 W7G20     29.91F HX  83
6HR MIN TEMP:  66; 6HR MAX TEMP:  81;

MIDDLETON      MOCLDY    81  63  54 W15G22    29.92F HX  82
6HR MIN TEMP:  65; 6HR MAX TEMP:  81;

MONROE         PTSUNNY   79  64  61 W12G26    29.94F HX  81
JANESVILLE     MOSUNNY   82  63  51 W7        29.92F HX  83
$$

WIZ051-052-058>065-066-070>072-131900-
SOUTHEAST WISCONSIN

CITY           SKY/WX    TMP DP  RH WIND       PRES   REMARKS
MILWAUKEE      MOSUNNY   81  62  52 W12G23    29.89F HX  82
6HR MIN TEMP:  66; 6HR MAX TEMP:  81;

WAUKESHA       PTSUNNY   75  63  64 W10       29.92F
MILWAUKEE/TIMM MOSUNNY   79  59  50 W12G17    29.90F HX  80
RACINE         SUNNY     80  63  55 W10       29.92F HX  81
6HR MIN TEMP:  65; 6HR MAX TEMP:  80;

BURLINGTON     SUNNY     77  65  65 W8        29.91F
6HR MIN TEMP:  63; 6HR MAX TEMP:  77;

KENOSHA        SUNNY     79  65  62 W12       29.91F HX  81
6HR MIN TEMP:  65; 6HR MAX TEMP:  79;

FOND DU LAC    MOSUNNY   78  62  57 W16G24    29.88F HX  80
6HR MIN TEMP:  65; 6HR MAX TEMP:  78;

SHEBOYGAN      MOSUNNY   77  64  64 W13G26    29.87F
6HR MIN TEMP:  65; 6HR MAX TEMP:  77;

WEST BEND      PTSUNNY   77  61  57 W12G20    29.89S
JUNEAU         MOSUNNY   77  49  36 W12G20    29.91F
6HR MIN TEMP:  63; 6HR MAX TEMP:  77;

$$

LSZ147-162-131900-
LAKE SUPERIOR

STATION/POSITION TIME  TEMP    WIND        PRES    WAVE
                       AIR SEA DIR/SP/G            HT/PER
                 (UTC) (F)     (DEG/KT/KT) (MB)    (FT/S)
W MID LAKE BUOY  1750   45 39  230/ 12/ 14 1010.4F   2/ 4
PORT WING        1700   65     250/ 13/ 17 1012.2F
SAXON HARBOR     1700          280/  8/ 13 1012.2F
$$

LMZ867-665-643>646-131900-
LAKE MICHIGAN

STATION/POSITION TIME  TEMP    WIND        PRES    WAVE
                       AIR SEA DIR/SP/G            HT/PER
                 (UTC) (F)     (DEG/KT/KT) (MB)    (FT/S)
N MID LAKE BUOY  1750   64 60  290/ 10/ 12 1009.8R   1/ 3
NORTHPORT PIER   1700   68     320/  9/ 12 1010.2R
KEWAUNEE LAKESHO 1800   76     280/ 10/ 17 1011.5F
SHEBOYGAN LAKESH 1800   78     260/ 14/ 17 1011.2F
PORT WASHINGTON  1740   81     270/ 10/ 16 1012.2F
MILWAUKEE LAKESH 1800   79     290/ 13/ 19   N/A
S MID LAKE BUOY  1750   64 62  200/ 10/ 12 1013.1F   1/ 3
KENOSHA   LAKESH 1800   79     260/ 10/ 15   N/A
$$

TC  - TEMPERATURE IN CELSIUS
VSB - VISIBILITY IN STATUTE MILES
WCI - WIND CHILL INDEX
HX  - HEAT INDEX




USA.gov is the U.S. government's official web portal to all federal, state and local government web resources and services.